Change the Weather History Date:

Monday, February 4, 2013

  Actual Average Record
Temperature  
Mean Temperature 40 °F -  
Max Temperature 51 °F 41 °F 30 °F (2014)
Min Temperature 30 °F 20 °F 8 °F (2014)
Degree Days  
Heating Degree Days 24    
Moisture  
Dew Point 27 °F    
Average Humidity 61    
Maximum Humidity 80    
Minimum Humidity 40    
Precipitation  
Precipitation 0.00 in - - ()
Sea Level Pressure  
Sea Level Pressure 29.91 in    
Wind  
Wind Speed 8 mph (North)    
Max Wind Speed 14 mph    
Max Gust Speed -    
Visibility 10 miles    
Events      
Averages and records for this station are not official NWS values.
T = Trace of Precipitation, MM = Missing Value Source: NWS Daily Summary

Daily Weather History Graph

Daily Weather History Graph

Search for Another Location

Airport or City:

Trip Planner

Search our weather history database for the weather conditions in past years. The results will help you decide how hot, cold, wet, or windy it might be!

Date:

Astronomy

Feb. 04, 2013 Rise Set
Actual Time 7:37 AM CST 6:01 PM CST
Civil Twilight 7:09 AM CST 6:29 PM CST
Nautical Twilight 6:38 AM CST 7:00 PM CST
Astronomical Twilight 6:07 AM CST 7:31 PM CST
Moon 2:13 AM CST (2/4) 12:27 PM CST (2/4)
Length of Visible Light 11h 19m
Length of Day
10h 24m
Last Quarter, 37% of the Moon is Illuminated
Feb 4
Last Quarter
Feb 10
New
Feb 17
First Quarter
Feb 25
Full
Mar 4
Last Quarter

Hourly Weather History & Observations

Time (CST) Temp. Windchill Dew Point Humidity Pressure Visibility Wind Dir Wind Speed Gust Speed Precip Events Conditions
12:15 AM 39.2 °F 33.6 °F 28.4 °F 65% 29.81 in 10.0 mi WNW 8.1 mph - N/A   Clear
12:35 AM 37.4 °F 32.1 °F 28.4 °F 70% 29.80 in 10.0 mi WSW 6.9 mph - N/A   Clear
12:55 AM 39.2 °F 34.2 °F 28.4 °F 65% 29.81 in 10.0 mi West 6.9 mph - N/A   Clear
1:15 AM 39.2 °F 35.0 °F 26.6 °F 61% 29.80 in 10.0 mi WSW 5.8 mph - N/A   Clear
1:35 AM 39.2 °F 34.2 °F 28.4 °F 65% 29.80 in 10.0 mi WSW 6.9 mph - N/A   Clear
1:55 AM 37.4 °F 31.4 °F 26.6 °F 65% 29.80 in 10.0 mi West 8.1 mph - N/A   Clear
2:15 AM 37.4 °F 32.8 °F 26.6 °F 65% 29.81 in 10.0 mi WNW 5.8 mph - N/A   Clear
2:35 AM 35.6 °F 29.9 °F 26.6 °F 70% 29.80 in 10.0 mi NW 6.9 mph - N/A   Clear
2:55 AM 35.6 °F 28.6 °F 26.6 °F 70% 29.81 in 10.0 mi NW 9.2 mph - N/A   Clear
3:15 AM 33.8 °F 27.7 °F 26.6 °F 75% 29.81 in 10.0 mi WNW 6.9 mph - N/A   Clear
4:55 AM 33.8 °F 25.3 °F 24.8 °F 70% 29.85 in 10.0 mi NNW 11.5 mph - N/A   Clear
5:15 AM 35.6 °F 26.6 °F 24.8 °F 65% 29.86 in 10.0 mi North 13.8 mph - N/A   Clear
5:35 AM 35.6 °F 28.0 °F 24.8 °F 65% 29.87 in 10.0 mi North 10.4 mph - N/A   Clear
5:55 AM 35.6 °F 28.6 °F 24.8 °F 65% 29.88 in 10.0 mi North 9.2 mph - N/A   Clear
6:15 AM 33.8 °F - 24.8 °F 70% 29.89 in 10.0 mi North - - N/A   Clear
6:35 AM 33.8 °F 27.0 °F 24.8 °F 70% 29.90 in 10.0 mi NNW 8.1 mph - N/A   Clear
6:55 AM 33.8 °F 26.4 °F 24.8 °F 70% 29.91 in 10.0 mi NNW 9.2 mph - N/A   Clear
7:15 AM 33.8 °F 26.4 °F 24.8 °F 70% 29.92 in 10.0 mi NNW 9.2 mph - N/A   Clear
7:35 AM 33.8 °F 25.8 °F 24.8 °F 70% 29.93 in 10.0 mi NNW 10.4 mph - N/A   Clear
7:55 AM 33.8 °F 26.4 °F 24.8 °F 70% 29.94 in 10.0 mi NNW 9.2 mph - N/A   Clear
8:15 AM 33.8 °F 25.3 °F 24.8 °F 70% 29.94 in 10.0 mi NNW 11.5 mph - N/A   Clear
8:35 AM 35.6 °F 28.0 °F 24.8 °F 65% 29.95 in 10.0 mi North 10.4 mph - N/A   Clear
8:55 AM 37.4 °F 29.8 °F 26.6 °F 65% 29.95 in 10.0 mi North 11.5 mph - N/A   Clear
9:15 AM 37.4 °F 30.3 °F 26.6 °F 65% 29.96 in 10.0 mi North 10.4 mph - N/A   Clear
9:35 AM 39.2 °F 32.0 °F 26.6 °F 61% 29.96 in 10.0 mi North 11.5 mph - N/A   Clear
9:55 AM 41.0 °F 33.9 °F 26.6 °F 57% 29.96 in 10.0 mi NNE 12.7 mph - N/A   Clear
10:15 AM 41.0 °F 33.5 °F 28.4 °F 61% 29.97 in 10.0 mi NNE 13.8 mph - N/A   Clear
10:35 AM 42.8 °F 36.2 °F 28.4 °F 57% 29.98 in 10.0 mi NNE 12.7 mph - N/A   Clear
10:55 AM 44.6 °F 38.8 °F 28.4 °F 53% 29.98 in 10.0 mi NNE 11.5 mph - N/A   Clear
11:15 AM 44.6 °F 38.8 °F 28.4 °F 53% 29.98 in 10.0 mi North 11.5 mph - N/A   Clear
11:35 AM 44.6 °F 38.4 °F 28.4 °F 53% 29.98 in 10.0 mi North 12.7 mph - N/A   Clear
11:55 AM 46.4 °F 41.1 °F 30.2 °F 53% 29.98 in 10.0 mi North 11.5 mph - N/A   Clear
12:15 PM 46.4 °F 42.9 °F 28.4 °F 50% 29.98 in 10.0 mi North 6.9 mph - N/A   Clear
12:35 PM 46.4 °F 41.9 °F 30.2 °F 53% 29.97 in 10.0 mi North 9.2 mph - N/A   Clear
12:55 PM 46.4 °F 42.9 °F 30.2 °F 53% 29.96 in 10.0 mi North 6.9 mph - N/A   Clear
1:15 PM 48.2 °F - 30.2 °F 50% 29.95 in 10.0 mi North 6.9 mph - N/A   Clear
1:35 PM 48.2 °F - 30.2 °F 50% 29.94 in 10.0 mi NE 6.9 mph - N/A   Clear
1:55 PM 50.0 °F - 30.2 °F 47% 29.94 in 10.0 mi North 6.9 mph - N/A   Clear
2:15 PM 50.0 °F - 28.4 °F 43% 29.94 in 10.0 mi NNE 9.2 mph - N/A   Clear
2:35 PM 51.8 °F - 30.2 °F 44% 29.93 in 10.0 mi NE 5.8 mph - N/A   Clear
2:55 PM 51.8 °F - 30.2 °F 44% 29.92 in 10.0 mi North 5.8 mph - N/A   Clear
3:15 PM 51.8 °F - 28.4 °F 41% 29.91 in 10.0 mi NNE 3.5 mph - N/A   Clear
3:35 PM 50.0 °F - 28.4 °F 43% 29.91 in 10.0 mi NE 6.9 mph - N/A   Clear
4:15 PM 51.8 °F - 28.4 °F 41% 29.91 in 10.0 mi ENE 3.5 mph - N/A   Clear
4:35 PM 51.8 °F - 28.4 °F 41% 29.91 in 10.0 mi Calm Calm - N/A   Clear
4:55 PM 50.0 °F - 26.6 °F 40% 29.90 in 10.0 mi Calm Calm - N/A   Clear
5:15 PM 50.0 °F - 26.6 °F 40% 29.90 in 10.0 mi Calm Calm - N/A   Clear
5:35 PM 48.2 °F - 30.2 °F 50% 29.90 in 10.0 mi ESE 6.9 mph - N/A   Clear
5:55 PM 46.4 °F 42.9 °F 28.4 °F 50% 29.89 in 10.0 mi ESE 6.9 mph - N/A   Clear
6:15 PM 44.6 °F 41.4 °F 28.4 °F 53% 29.90 in 10.0 mi ESE 5.8 mph - N/A   Clear
6:35 PM 42.8 °F 40.1 °F 26.6 °F 53% 29.90 in 10.0 mi ESE 4.6 mph - N/A   Clear
6:55 PM 41.0 °F 37.1 °F 28.4 °F 61% 29.91 in 10.0 mi SE 5.8 mph - N/A   Clear
7:15 PM 39.2 °F 35.9 °F 26.6 °F 61% 29.93 in 10.0 mi ESE 4.6 mph - N/A   Clear
7:35 PM 37.4 °F 32.8 °F 26.6 °F 65% 29.93 in 10.0 mi SE 5.8 mph - N/A   Clear
7:55 PM 35.6 °F 32.8 °F 26.6 °F 70% 29.94 in 10.0 mi SSE 3.5 mph - N/A   Clear
8:15 PM 37.4 °F 33.8 °F 26.6 °F 65% 29.94 in 10.0 mi SSE 4.6 mph - N/A   Clear
8:35 PM 33.8 °F 27.7 °F 24.8 °F 70% 29.93 in 10.0 mi SSE 6.9 mph - N/A   Clear
8:55 PM 33.8 °F 27.0 °F 24.8 °F 70% 29.93 in 10.0 mi SE 8.1 mph - N/A   Clear
9:15 PM 32.0 °F 24.8 °F 24.8 °F 75% 29.92 in 10.0 mi SSE 8.1 mph - N/A   Clear
9:35 PM 33.8 °F 26.4 °F 26.6 °F 75% 29.92 in 10.0 mi SSE 9.2 mph - N/A   Clear
9:55 PM 33.8 °F 27.0 °F 26.6 °F 75% 29.93 in 10.0 mi SSE 8.1 mph - N/A   Clear
10:15 PM 33.8 °F 25.8 °F 26.6 °F 75% 29.92 in 10.0 mi South 10.4 mph - N/A   Clear
10:35 PM 32.0 °F 24.2 °F 24.8 °F 75% 29.92 in 10.0 mi South 9.2 mph - N/A   Clear
10:55 PM 30.2 °F 21.9 °F 24.8 °F 80% 29.91 in 10.0 mi South 9.2 mph - N/A   Clear
11:15 PM 30.2 °F 21.9 °F 24.8 °F 80% 29.91 in 10.0 mi South 9.2 mph - N/A   Clear
11:35 PM 33.8 °F 26.4 °F 26.6 °F 75% 29.90 in 10.0 mi SSW 9.2 mph - N/A   Clear
11:55 PM 33.8 °F 27.0 °F 26.6 °F 75% 29.89 in 10.0 mi SSW 8.1 mph - N/A   Clear